Location: R�serve Fauniques des Laurentides
(47.3100°N, 71.1900°W)
Time: 03:58:27
(UTC-04:00)

Cosmos 1674 - Visible Passes

Search period start: 23 October 2014 00:00
Search period end: 02 November 2014 00:00
Orbit: 514 x 540 km, 82.5° (Epoch: 22 October)

Date Brightness Start Highest point End Pass type
(mag) Time Alt. Az. Time Alt. Az. Time Alt. Az.
23 Oct 4.3 05:35:14 10° SSE 05:38:55 39° E 05:42:38 10° NNE visible
24 Oct 4.5 05:23:57 10° SSE 05:27:34 36° E 05:31:13 10° NNE visible
25 Oct 4.6 05:12:39 10° SSE 05:16:12 33° E 05:19:47 10° NNE visible
26 Oct 4.7 05:01:22 10° SSE 05:04:50 30° E 05:08:19 10° NNE visible
26 Oct 3.9 06:37:35 10° SW 06:40:48 24° WNW 06:44:03 10° NNW visible
27 Oct 4.9 04:50:04 10° SSE 04:53:26 28° E 04:56:50 10° NNE visible
27 Oct 3.8 06:26:02 10° SW 06:29:22 26° WNW 06:32:43 10° NNW visible
28 Oct 5.0 04:38:46 10° SE 04:42:02 25° E 04:45:20 10° NNE visible
28 Oct 3.7 06:14:28 10° SW 06:17:54 28° WNW 06:21:21 10° NNW visible
29 Oct 5.1 04:28:18 14° SE 04:30:37 23° E 04:33:48 10° NE visible
29 Oct 3.5 06:03:43 15° SW 06:06:26 30° WNW 06:09:58 10° N visible
30 Oct 5.2 04:18:59 21° E 04:19:11 21° E 04:22:14 10° NE visible
30 Oct 3.4 05:54:20 31° W 05:54:57 33° WNW 05:58:34 10° N visible
31 Oct 5.5 04:09:01 17° ENE 04:09:01 17° ENE 04:10:38 10° NE visible
31 Oct 3.6 05:44:20 31° NW 05:44:20 31° NW 05:47:08 10° N visible
01 Nov 6.0 03:58:41 11° NE 03:58:41 11° NE 03:59:01 10° NE visible
01 Nov 4.3 05:33:59 22° NNW 05:33:59 22° NNW 05:35:41 10° N visible
